Time,TemperatureF,DewpointF,PressureIn,WindDirection,WindDirectionDegrees,WindSpeedMPH,WindSpeedGustMPH,Humidity,HourlyPrecipIn,Conditions,Clouds,dailyrainin,SoftwareType,DateUTC
2013-02-14 00:11:00,-999.0,-99.9,-100.00,South,175,6.0,9.0,84,-99.99,,,-99.99,,2013-02-14 06:11:00,
2013-02-14 00:22:00,-999.0,-99.9,-100.00,South,175,6.0,11.0,83,-99.99,,,-99.99,,2013-02-14 06:22:00,
2013-02-14 00:32:00,-999.0,-99.9,-100.00,South,175,6.0,11.0,83,-99.99,,,-99.99,,2013-02-14 06:32:00,
2013-02-14 00:42:00,-999.0,-99.9,-100.00,South,190,9.0,13.0,81,-99.99,,,-99.99,,2013-02-14 06:42:00,
2013-02-14 00:52:00,-999.0,-99.9,-100.00,South,185,8.0,16.0,81,-99.99,,,-99.99,,2013-02-14 06:52:00,
2013-02-14 01:02:00,-999.0,-99.9,-100.00,South,185,8.0,16.0,81,-99.99,,,-99.99,,2013-02-14 07:02:00,
2013-02-14 01:11:00,-999.0,-99.9,-100.00,South,185,8.0,16.0,81,-99.99,,,-99.99,,2013-02-14 07:11:00,
2013-02-14 01:22:00,-999.0,-99.9,-100.00,South,175,8.0,14.0,81,-99.99,,,-99.99,,2013-02-14 07:22:00,
2013-02-14 01:32:00,-999.0,-99.9,-100.00,South,175,8.0,14.0,81,-99.99,,,-99.99,,2013-02-14 07:32:00,
2013-02-14 01:42:00,-999.0,-99.9,-100.00,South,175,8.0,14.0,81,-99.99,,,-99.99,,2013-02-14 07:42:00,
2013-02-14 01:52:00,-999.0,-99.9,-100.00,SSE,160,8.0,13.0,81,-99.99,,,-99.99,,2013-02-14 07:52:00,
2013-02-14 02:01:00,-999.0,-99.9,-100.00,SSE,160,8.0,13.0,81,-99.99,,,-99.99,,2013-02-14 08:01:00,
2013-02-14 02:11:00,-999.0,-99.9,-100.00,South,180,8.0,14.0,80,-99.99,,,-99.99,,2013-02-14 08:11:00,
2013-02-14 02:22:00,-999.0,-99.9,-100.00,South,185,9.0,16.0,78,-99.99,,,-99.99,,2013-02-14 08:22:00,
2013-02-14 02:30:00,-999.0,-99.9,-100.00,South,190,9.0,16.0,80,-99.99,,,-99.99,,2013-02-14 08:30:00,
2013-02-14 02:32:00,-999.0,-99.9,-100.00,South,185,9.0,16.0,78,-99.99,,,-99.99,,2013-02-14 08:32:00,
2013-02-14 02:43:00,-999.0,-99.9,-100.00,South,190,13.0,18.0,78,-99.99,,,-99.99,,2013-02-14 08:43:00,
2013-02-14 02:52:00,-999.0,-99.9,-100.00,SSW,200,10.0,16.0,79,-99.99,,,-99.99,,2013-02-14 08:52:00,
2013-02-14 03:02:00,-999.0,-99.9,-100.00,SSW,200,10.0,16.0,79,-99.99,,,-99.99,,2013-02-14 09:02:00,
2013-02-14 03:11:00,-999.0,-99.9,-100.00,South,190,9.0,16.0,80,-99.99,,,-99.99,,2013-02-14 09:11:00,
2013-02-14 03:22:00,-999.0,-99.9,-100.00,South,190,9.0,16.0,80,-99.99,,,-99.99,,2013-02-14 09:22:00,
2013-02-14 03:30:00,-999.0,-99.9,-100.00,SSW,210,9.0,15.0,83,-99.99,,,-99.99,,2013-02-14 09:30:00,
2013-02-14 03:42:00,-999.0,-99.9,-100.00,SSW,195,11.0,16.0,82,-99.99,,,-99.99,,2013-02-14 09:42:00,
2013-02-14 03:52:00,-999.0,-99.9,-100.00,SSW,195,7.0,14.0,83,-99.99,,,-99.99,,2013-02-14 09:52:00,
2013-02-14 04:02:00,-999.0,-99.9,-100.00,SSW,195,7.0,14.0,83,-99.99,,,-99.99,,2013-02-14 10:02:00,
2013-02-14 04:11:00,-999.0,-99.9,-100.00,SSW,210,9.0,15.0,83,-99.99,,,-99.99,,2013-02-14 10:11:00,
2013-02-14 04:22:00,-999.0,-99.9,-100.00,SSW,210,9.0,15.0,83,-99.99,,,-99.99,,2013-02-14 10:22:00,
2013-02-14 04:52:00,-999.0,-99.9,-100.00,SW,215,4.0,9.0,85,-99.99,,,-99.99,,2013-02-14 10:52:00,
2013-02-14 05:02:00,-999.0,-99.9,-100.00,SW,215,4.0,9.0,85,-99.99,,,-99.99,,2013-02-14 11:02:00,
2013-02-14 05:12:00,-999.0,-99.9,-100.00,WSW,245,4.0,7.0,86,-99.99,,,-99.99,,2013-02-14 11:12:00,
2013-02-14 05:22:00,-999.0,-99.9,-100.00,WSW,240,6.0,8.0,85,-99.99,,,-99.99,,2013-02-14 11:22:00,
2013-02-14 05:32:00,-999.0,-99.9,-100.00,WSW,240,6.0,8.0,85,-99.99,,,-99.99,,2013-02-14 11:32:00,
2013-02-14 05:42:00,-999.0,-99.9,-100.00,WSW,255,7.0,9.0,84,-99.99,,,-99.99,,2013-02-14 11:42:00,
2013-02-14 05:52:00,-999.0,-99.9,-100.00,SW,235,8.0,13.0,85,-99.99,,,-99.99,,2013-02-14 11:52:00,
2013-02-14 06:02:00,-999.0,-99.9,-100.00,SW,235,8.0,13.0,85,-99.99,,,-99.99,,2013-02-14 12:02:00,
2013-02-14 06:12:00,-999.0,-99.9,-100.00,WSW,250,5.0,11.0,86,-99.99,,,-99.99,,2013-02-14 12:12:00,
2013-02-14 06:22:00,-999.0,-99.9,-100.00,WSW,245,8.0,11.0,86,-99.99,,,-99.99,,2013-02-14 12:22:00,
2013-02-14 06:32:00,-999.0,-99.9,-100.00,WSW,245,8.0,11.0,86,-99.99,,,-99.99,,2013-02-14 12:32:00,
2013-02-14 06:42:00,-999.0,-99.9,-100.00,SW,235,9.0,15.0,86,-99.99,,,-99.99,,2013-02-14 12:42:00,
2013-02-14 06:53:00,-999.0,-99.9,-100.00,WSW,240,9.0,14.0,87,-99.99,,,-99.99,,2013-02-14 12:53:00,
2013-02-14 07:02:00,-999.0,-99.9,-100.00,WSW,240,9.0,14.0,87,-99.99,,,-99.99,,2013-02-14 13:02:00,
2013-02-14 07:11:00,-999.0,-99.9,-100.00,WSW,240,9.0,14.0,87,-99.99,,,-99.99,,2013-02-14 13:11:00,
2013-02-14 07:21:00,-999.0,-99.9,-100.00,WSW,245,10.0,14.0,88,-99.99,,,-99.99,,2013-02-14 13:21:00,
2013-02-14 07:32:00,-999.0,-99.9,-100.00,WSW,245,10.0,14.0,88,-99.99,,,-99.99,,2013-02-14 13:32:00,
2013-02-14 07:42:00,-999.0,-99.9,-100.00,WSW,245,10.0,14.0,88,-99.99,,,-99.99,,2013-02-14 13:42:00,
2013-02-14 07:52:00,-999.0,-99.9,-100.00,WSW,255,11.0,16.0,88,-99.99,,,-99.99,,2013-02-14 13:52:00,
2013-02-14 08:01:00,-999.0,-99.9,-100.00,WSW,255,11.0,16.0,88,-99.99,,,-99.99,,2013-02-14 14:01:00,
2013-02-14 08:11:00,-999.0,-99.9,-100.00,WSW,255,10.0,15.0,88,-99.99,,,-99.99,,2013-02-14 14:11:00,
2013-02-14 08:22:00,-999.0,-99.9,-100.00,WSW,245,11.0,18.0,88,-99.99,,,-99.99,,2013-02-14 14:22:00,
2013-02-14 08:32:00,-999.0,-99.9,-100.00,WSW,245,11.0,18.0,88,-99.99,,,-99.99,,2013-02-14 14:32:00,
2013-02-14 08:42:00,-999.0,-99.9,-100.00,WSW,255,11.0,17.0,88,-99.99,,,-99.99,,2013-02-14 14:42:00,
2013-02-14 08:53:00,-999.0,-99.9,-100.00,WSW,255,14.0,23.0,86,-99.99,,,-99.99,,2013-02-14 14:53:00,
2013-02-14 09:02:00,-999.0,-99.9,-100.00,WSW,255,14.0,23.0,86,-99.99,,,-99.99,,2013-02-14 15:02:00,
2013-02-14 09:11:00,-999.0,-99.9,-100.00,WSW,255,14.0,23.0,86,-99.99,,,-99.99,,2013-02-14 15:11:00,
2013-02-14 09:22:00,-999.0,-99.9,-100.00,West,260,11.0,16.0,85,-99.99,,,-99.99,,2013-02-14 15:22:00,
2013-02-14 09:32:00,-999.0,-99.9,-100.00,West,260,11.0,16.0,85,-99.99,,,-99.99,,2013-02-14 15:32:00,
2013-02-14 09:42:00,-999.0,-99.9,-100.00,West,260,8.0,18.0,86,-99.99,,,-99.99,,2013-02-14 15:42:00,
2013-02-14 09:52:00,-999.0,-99.9,-100.00,WSW,255,11.0,19.0,86,-99.99,,,-99.99,,2013-02-14 15:52:00,
2013-02-14 10:02:00,-999.0,-99.9,-100.00,WSW,255,11.0,19.0,86,-99.99,,,-99.99,,2013-02-14 16:02:00,
2013-02-14 10:12:00,-999.0,-99.9,-100.00,WSW,255,11.0,19.0,86,-99.99,,,-99.99,,2013-02-14 16:12:00,
2013-02-14 10:22:00,-999.0,-99.9,-100.00,West,265,11.0,17.0,86,-99.99,,,-99.99,,2013-02-14 16:22:00,
2013-02-14 10:32:00,-999.0,-99.9,-100.00,West,265,11.0,17.0,86,-99.99,,,-99.99,,2013-02-14 16:32:00,
2013-02-14 10:42:00,-999.0,-99.9,-100.00,West,260,12.0,21.0,86,-99.99,,,-99.99,,2013-02-14 16:42:00,
2013-02-14 10:52:00,-999.0,-99.9,-100.00,West,270,11.0,24.0,86,-99.99,,,-99.99,,2013-02-14 16:52:00,
2013-02-14 11:01:00,-999.0,-99.9,-100.00,West,270,11.0,24.0,86,-99.99,,,-99.99,,2013-02-14 17:01:00,
2013-02-14 11:11:00,-999.0,-99.9,-100.00,West,270,11.0,24.0,86,-99.99,,,-99.99,,2013-02-14 17:11:00,
2013-02-14 11:22:00,-999.0,-99.9,-100.00,WNW,295,11.0,25.0,83,-99.99,,,-99.99,,2013-02-14 17:22:00,
2013-02-14 11:30:00,-999.0,-99.9,-100.00,NW,305,11.0,24.0,77,-99.99,,,-99.99,,2013-02-14 17:30:00,
2013-02-14 11:32:00,-999.0,-99.9,-100.00,WNW,295,11.0,25.0,83,-99.99,,,-99.99,,2013-02-14 17:32:00,
2013-02-14 11:42:00,-999.0,-99.9,-100.00,WNW,285,14.0,28.0,83,-99.99,,,-99.99,,2013-02-14 17:42:00,
2013-02-14 11:52:00,-999.0,-99.9,-100.00,WNW,285,15.0,25.0,81,-99.99,,,-99.99,,2013-02-14 17:52:00,
2013-02-14 12:02:00,-999.0,-99.9,-100.00,WNW,285,15.0,25.0,81,-99.99,,,-99.99,,2013-02-14 18:02:00,
2013-02-14 12:11:00,-999.0,-99.9,-100.00,NW,305,11.0,24.0,77,-99.99,,,-99.99,,2013-02-14 18:11:00,
2013-02-14 12:23:00,-999.0,-99.9,-100.00,NW,305,11.0,24.0,77,-99.99,,,-99.99,,2013-02-14 18:23:00,
2013-02-14 12:42:00,-999.0,-99.9,-100.00,West,275,18.0,26.0,74,-99.99,,,-99.99,,2013-02-14 18:42:00,
2013-02-14 12:52:00,-999.0,-99.9,-100.00,WNW,290,17.0,24.0,73,-99.99,,,-99.99,,2013-02-14 18:52:00,
2013-02-14 13:02:00,-999.0,-99.9,-100.00,WNW,290,17.0,24.0,73,-99.99,,,-99.99,,2013-02-14 19:02:00,
2013-02-14 13:11:00,-999.0,-99.9,-100.00,WNW,285,17.0,26.0,72,-99.99,,,-99.99,,2013-02-14 19:11:00,
2013-02-14 13:22:00,-999.0,-99.9,-100.00,WNW,285,14.0,29.0,68,-99.99,,,-99.99,,2013-02-14 19:22:00,
2013-02-14 13:32:00,-999.0,-99.9,-100.00,WNW,285,14.0,29.0,68,-99.99,,,-99.99,,2013-02-14 19:32:00,
2013-02-14 13:42:00,-999.0,-99.9,-100.00,WNW,300,18.0,27.0,68,-99.99,,,-99.99,,2013-02-14 19:42:00,
2013-02-14 13:52:00,-999.0,-99.9,-100.00,WNW,285,15.0,26.0,65,-99.99,,,-99.99,,2013-02-14 19:52:00,
2013-02-14 14:00:00,-999.0,-99.9,-100.00,WNW,285,16.0,32.0,61,-99.99,,,-99.99,,2013-02-14 20:00:00,
2013-02-14 14:02:00,-999.0,-99.9,-100.00,WNW,285,15.0,26.0,65,-99.99,,,-99.99,,2013-02-14 20:02:00,
2013-02-14 14:11:00,-999.0,-99.9,-100.00,WNW,285,15.0,30.0,66,-99.99,,,-99.99,,2013-02-14 20:11:00,
2013-02-14 14:22:00,-999.0,-99.9,-100.00,West,280,19.0,32.0,64,-99.99,,,-99.99,,2013-02-14 20:22:00,
2013-02-14 14:32:00,-999.0,-99.9,-100.00,West,280,19.0,32.0,64,-99.99,,,-99.99,,2013-02-14 20:32:00,
2013-02-14 14:42:00,-999.0,-99.9,-100.00,WNW,285,16.0,32.0,61,-99.99,,,-99.99,,2013-02-14 20:42:00,
2013-02-14 14:52:00,-999.0,-99.9,-100.00,WNW,285,16.0,32.0,61,-99.99,,,-99.99,,2013-02-14 20:52:00,
2013-02-14 15:11:00,-999.0,-99.9,-100.00,West,280,20.0,26.0,62,-99.99,,,-99.99,,2013-02-14 21:11:00,
2013-02-14 15:22:00,-999.0,-99.9,-100.00,West,280,19.0,31.0,60,-99.99,,,-99.99,,2013-02-14 21:22:00,
2013-02-14 15:32:00,-999.0,-99.9,-100.00,West,280,19.0,31.0,60,-99.99,,,-99.99,,2013-02-14 21:32:00,
2013-02-14 15:42:00,-999.0,-99.9,-100.00,WNW,300,15.0,28.0,58,-99.99,,,-99.99,,2013-02-14 21:42:00,
2013-02-14 15:52:00,-999.0,-99.9,-100.00,WNW,300,14.0,24.0,60,-99.99,,,-99.99,,2013-02-14 21:52:00,
2013-02-14 16:02:00,-999.0,-99.9,-100.00,WNW,300,14.0,24.0,60,-99.99,,,-99.99,,2013-02-14 22:02:00,
2013-02-14 16:11:00,-999.0,-99.9,-100.00,NW,305,11.0,21.0,62,-99.99,,,-99.99,,2013-02-14 22:11:00,
2013-02-14 16:22:00,-999.0,-99.9,-100.00,WNW,285,11.0,21.0,63,-99.99,,,-99.99,,2013-02-14 22:22:00,
2013-02-14 16:32:00,-999.0,-99.9,-100.00,WNW,285,11.0,21.0,63,-99.99,,,-99.99,,2013-02-14 22:32:00,
2013-02-14 16:42:00,-999.0,-99.9,-100.00,WNW,300,13.0,20.0,63,-99.99,,,-99.99,,2013-02-14 22:42:00,
2013-02-14 16:52:00,-999.0,-99.9,-100.00,WNW,295,11.0,21.0,63,-99.99,,,-99.99,,2013-02-14 22:52:00,
2013-02-14 17:01:00,-999.0,-99.9,-100.00,WNW,295,11.0,21.0,63,-99.99,,,-99.99,,2013-02-14 23:01:00,
2013-02-14 17:11:00,-999.0,-99.9,-100.00,WNW,295,11.0,21.0,63,-99.99,,,-99.99,,2013-02-14 23:11:00,
2013-02-14 17:22:00,-999.0,-99.9,-100.00,WNW,290,13.0,17.0,64,-99.99,,,-99.99,,2013-02-14 23:22:00,
2013-02-14 17:32:00,-999.0,-99.9,-100.00,WNW,290,13.0,17.0,64,-99.99,,,-99.99,,2013-02-14 23:32:00,
2013-02-14 17:42:00,-999.0,-99.9,-100.00,WNW,290,13.0,17.0,64,-99.99,,,-99.99,,2013-02-14 23:42:00,
2013-02-14 18:11:00,-999.0,-99.9,-100.00,West,280,7.0,16.0,67,-99.99,,,-99.99,,2013-02-15 00:11:00,
2013-02-14 18:22:00,-999.0,-99.9,-100.00,WNW,285,11.0,15.0,67,-99.99,,,-99.99,,2013-02-15 00:22:00,
2013-02-14 18:32:00,-999.0,-99.9,-100.00,WNW,285,11.0,15.0,67,-99.99,,,-99.99,,2013-02-15 00:32:00,
2013-02-14 18:42:00,-999.0,-99.9,-100.00,WNW,285,6.0,12.0,67,-99.99,,,-99.99,,2013-02-15 00:42:00,
2013-02-14 20:32:00,-999.0,-99.9,-100.00,West,275,4.0,8.0,74,-99.99,,,-99.99,,2013-02-15 02:32:00,
2013-02-14 20:42:00,-999.0,-99.9,-100.00,West,275,4.0,8.0,74,-99.99,,,-99.99,,2013-02-15 02:42:00,
2013-02-14 22:00:00,-999.0,-99.9,-100.00,WNW,290,5.0,10.0,81,-99.99,,,-99.99,,2013-02-15 04:00:00,
2013-02-14 22:42:00,-999.0,-99.9,-100.00,WNW,290,5.0,10.0,81,-99.99,,,-99.99,,2013-02-15 04:42:00,
2013-02-14 22:52:00,-999.0,-99.9,-100.00,WNW,290,5.0,10.0,81,-99.99,,,-99.99,,2013-02-15 04:52:00,
2013-02-14 23:22:00,-999.0,-99.9,-100.00,WNW,290,7.0,12.0,83,-99.99,,,-99.99,,2013-02-15 05:22:00,
2013-02-14 23:33:00,-999.0,-99.9,-100.00,WNW,290,7.0,12.0,83,-99.99,,,-99.99,,2013-02-15 05:33:00,
2013-02-14 23:42:00,-999.0,-99.9,-100.00,WNW,290,7.0,12.0,83,-99.99,,,-99.99,,2013-02-15 05:42:00,
2013-02-14 23:52:00,-999.0,-99.9,-100.00,NW,310,8.0,14.0,84,-99.99,,,-99.99,,2013-02-15 05:52:00,